Location: Rainwater Observatory
(33.2833°N, 89.3833°W)
Time: 23:22:01
(UTC-05:00)

Daily predictions for brighter satellites

Satellite Brightness Start Highest point End
(mag) Time Altitude Azimuth Time Altitude Azimuth Time Altitude Azimuth
USA 267 3.4 19:57:50 10° NE 20:04:23 83° NW 20:10:55 10° SW
Atlas Centaur 2 2.5 19:58:54 10° WSW 20:04:32 67° S 20:11:44 10° E
Cosmos 2322 4.1 20:01:30 10° S 20:06:49 42° ESE 20:12:09 10° NE
SL-16 R/B 3.1 20:04:26 10° SW 20:09:58 55° WNW 20:15:32 10° N
Cosmos 1869 3.9 20:06:31 10° SSW 20:10:23 63° W 20:14:18 10° N
Cosmos 1733 Rocket 3.6 20:09:44 10° N 20:13:54 38° E 20:18:02 10° SSE
Meteor 2-20 Rocket 4.5 20:09:18 10° N 20:15:24 65° E 20:21:29 10° SSE
OAO 3 Rocket 3.2 20:14:47 10° WNW 20:19:37 86° SSW 20:24:12 12° ESE
Cosmos 1862 Rocket 3.6 20:17:11 10° S 20:21:33 61° E 20:25:59 10° NNE
SJ-6B 4.1 20:18:47 10° S 20:22:35 44° W 20:26:28 10° NNW
Cosmos 2026 Rocket 3.9 20:16:57 10° N 20:23:08 71° E 20:29:10 10° SSE
Meteor 2-10 Rocket 4.2 20:18:31 10° SSE 20:23:56 42° E 20:29:20 10° NNE
CZ-2D R/B 3.3 20:21:35 10° SSE 20:25:25 63° ENE 20:29:16 10° N
Spot 2 Rocket 3.5 20:21:28 10° SSE 20:26:32 74° ENE 20:31:36 10° N
Cosmos 968 Rocket 4.4 20:22:07 10° N 20:26:43 31° ENE 20:30:31 14° ESE
Cosmos 2333 Rocket 3.7 20:32:00 14° ESE 20:32:50 14° E 20:35:45 10° ENE
Intercosmos 25 Rocket 3.7 20:33:34 10° SSW 20:36:43 61° W 20:40:47 10° N
Lacrosse 4 Rocket 2.8 20:33:13 10° NW 20:37:18 39° WSW 20:41:27 10° S
ALOS 3.9 20:34:25 10° SSW 20:38:40 35° W 20:42:57 10° NNW
Helios 1B rocket 2.4 20:36:22 10° NNE 20:40:25 57° ESE 20:44:26 10° S
Cosmos 1703 Rocket 4.2 20:38:39 10° SSE 20:42:42 36° E 20:46:43 10° NNE
Cosmos 2219 Rocket 3.1 20:42:14 12° SSE 20:46:05 24° ESE 20:50:30 10° NE
Envisat 3.3 20:42:56 15° SE 20:46:53 49° ENE 20:51:46 10° N
Resurs 1-3 4.0 20:44:20 10° S 20:48:40 63° W 20:53:01 10° NNW
SAR-Lupe-4 3.8 20:47:47 23° SE 20:49:46 50° ENE 20:53:15 10° N
USA 186 1.6 20:48:26 16° S 20:50:35 72° WSW 20:53:35 10° NNW
Meteor 1-29 2.8 20:49:25 10° NNE 20:52:51 64° E 20:56:14 10° S
SEDSat Delta rocket 3.5 20:53:49 10° W 20:58:38 62° S 21:01:31 27° ESE
Cosmos 1933 4.5 20:55:44 10° SSW 20:59:35 44° W 21:03:27 10° N
ERS-1 Rocket 3.9 21:01:58 26° ESE 21:03:32 31° ENE 21:07:56 10° N
Sakura Rocket 3.1 21:03:23 10° WSW 21:06:51 42° S 21:07:34 38° SSE
SAR-Lupe-1 3.9 21:05:38 35° SSE 21:06:59 75° ENE 21:10:34 10° N
Cosmos 1867 3.5 21:02:36 10° NNW 21:08:05 83° ENE 21:10:59 29° SSE
Milstar 3 3.5 21:00:10 10° W 21:08:20 44° SSW 21:11:48 25° SE
Spot 1 4.5 21:04:17 16° SSE 21:08:26 86° WSW 21:13:29 10° NNW
Cosmos 2263 Rocket 2.9 21:05:19 10° NNW 21:10:41 50° WSW 21:15:40 12° S
Cosmos 2266 Rocket 4.1 21:06:29 10° N 21:12:44 60° E 21:16:21 26° SSE
NOSS 3-1 (C) 3.2 21:10:09 10° SSW 21:15:41 65° ESE 21:21:47 10° NE
Cosmos 2221 Rocket 3.5 21:14:07 28° S 21:16:19 67° E 21:20:42 10° NNE
Cosmos 1782 3.9 21:18:24 30° ENE 21:18:24 30° ENE 21:21:08 10° NNE
Meteor 1-26 Rocket 4.5 21:12:12 10° SSW 21:17:51 73° W 21:23:39 10° N
Cosmos 2208 Rocket 4.3 21:25:08 42° ESE 21:25:36 43° ESE 21:30:38 10° NNE
Cosmos 2360 Rocket 4.1 21:23:15 10° WSW 21:28:09 30° WNW 21:33:07 10° N
NOSS 3-1 (A) 3.2 21:27:58 10° SSW 21:33:31 64° ESE 21:39:37 10° NE
Resurs 01 Rocket 4.3 21:32:13 10° SW 21:34:52 15° W 21:37:30 10° WNW
Cosmos 1908 Rocket 4.3 21:32:46 10° NNW 21:36:58 50° W 21:38:53 29° SSW
COSMOS 2428 3.2 21:31:56 10° SSW 21:37:31 59° WNW 21:43:09 10° NNE
Cosmos 1939 Rocket 3.6 21:36:47 34° SSW 21:38:06 48° W 21:41:59 10° NNW
ATLAS 5 CENTAUR R/B 3.1 21:32:12 10° NW 21:38:11 50° WSW 21:41:38 26° S
CZ-4B DEB 4.3 21:38:31 29° WSW 21:38:43 29° W 21:41:25 10° NW
ARGOS 3.7 21:41:15 39° ENE 21:41:23 39° ENE 21:46:21 10° N
Cosmos 1980 4.0 21:42:14 46° E 21:42:14 46° E 21:47:03 10° NNE
NOAA 11 4.3 21:41:21 51° ESE 21:42:06 56° ENE 21:47:27 10° N
YAOGAN 6 3.0 21:46:03 60° WNW 21:46:03 60° WNW 21:49:14 10° NNW
Cosmos 1606 4.1 21:48:19 30° NNE 21:48:19 30° NNE 21:50:20 10° NNE
Okean 1-7 3.6 21:45:24 32° SW 21:47:13 55° W 21:51:34 10° N
Cosmos 1777 Rocket 3.9 21:43:44 10° NNW 21:49:01 90° W 21:49:46 67° SSE
Cosmos 1844 4.0 21:44:06 10° N 21:49:33 48° ENE 21:49:48 48° ENE
Cosmos 1782 Rocket 3.8 21:47:35 10° NNW 21:51:56 62° W 21:52:23 58° SW
Atlas Centaur 2 2.7 21:47:24 10° W 21:53:56 63° S 21:55:28 52° SE
SPOT 1/Viking Rocket 4.4 21:55:00 35° NE 21:55:00 35° NE 21:59:08 10° N
Meteor 1-10 Rocket 4.2 21:54:01 50° S 21:55:40 86° E 22:01:33 10° N
OAO 1 Rocket 4.3 21:53:02 10° W 21:58:23 84° N 21:58:46 76° NE
MOS 1-B Rocket 3.9 22:02:57 62° E 22:03:07 63° ENE 22:08:39 10° N
MetOp-A 4.0 22:03:40 82° SSE 22:03:56 90° WSW 22:09:19 10° NNW
USA 245 4.1 22:05:25 65° NE 22:05:25 65° NE 22:09:48 10° N
Nadezhda 2 Rocket 4.5 21:58:56 10° N 22:05:24 84° W 22:06:48 58° S
Cosmos 2237 Rocket 2.2 22:08:38 71° NE 22:08:38 71° NE 22:13:48 10° NNE
Cosmos 1844 Rocket 2.6 22:05:49 10° NNW 22:11:23 79° WSW 22:11:29 78° WSW
Meteor 1-20 Rocket 4.5 22:06:01 10° NNW 22:11:35 64° W 22:12:30 55° SW
Okean 2 Rocket 3.9 22:08:38 10° NNW 22:12:43 49° W 22:12:43 49° W
Nimbus 7 Rocket 4.3 22:08:39 10° NNE 22:14:39 87° ESE 22:15:00 80° S
CZ-4C R/B 3.4 22:09:07 10° NNW 22:16:07 46° NE 22:17:07 44° ENE
Cosmos 2333 Rocket 2.6 22:13:47 32° SW 22:16:26 62° WNW 22:22:11 10° NNE
S3M 4.0 22:18:41 65° ENE 22:18:41 65° ENE 22:24:15 10° N
Cosmos 2278 Rocket 2.9 22:12:52 10° N 22:17:25 42° NE 22:17:25 42° NE
USA 234 3.2 22:17:39 64° E 22:18:25 71° NE 22:24:56 10° NW
Cosmos 2219 Rocket 3.5 22:24:38 10° SW 22:29:45 36° WNW 22:34:54 10° N
SPOT 5 4.0 22:37:07 40° NW 22:37:07 40° NW 22:40:22 10° NNW
SeaSat 1 3.6 22:38:34 38° N 22:38:34 38° N 22:41:44 10° NNW
H-2A R/B 3.1 22:47:19 39° NNW 22:47:19 39° NNW 22:50:25 10° NNW
Cosmos 1745 Rocket 4.3 22:48:44 10° N 22:53:58 63° NNW 22:53:58 63° NNW
Terra 3.9 23:11:24 24° NNW 23:11:24 24° NNW 23:13:20 10° NNW
ATLAS 2AS CENTAUR R/B 3.4 23:26:52 55° NNE 23:26:52 55° NNE 23:32:57 10° NNE
SL-16 R/B 3.9 23:35:10 29° N 23:35:10 29° N 23:38:11 10° N
ATLAS 3B R/B 3.9 23:46:05 10° NNW 23:50:28 33° NNE 23:50:28 33° NNE
